Starlink 33545

operational
NORAD ID: 62101 Int'l Des: 2024-220 Owner: SPXS Country: US Constellation: starlink
LEOCIRCULAR

About Starlink 33545

Description loading...

Live Position

Loading 3D Globe...

Upcoming Passes

Altitude History

Altitude vs Time

uPlot chart will show altitude changes over time

Two-Line Element Set

1 62101U 24220P 25257.92782691 .00023819 00000-0 87198-3 0 9994
2 62101 43.0012 117.9048 0001360 272.6733 87.3963 15.27591513 46142
Epoch: Sep 14, 2025 • Age: 22 hours

Current Status

Altitude 483.0 km
Velocity 7.63 km/s
Sub-Earth Point -3.60°S, 170.64°E
Launch Date Nov 25, 2024
Age 0.8 years
Type internet

Technical Details

Classification Payload
Mass 530.00 kg
Dry Mass 500.00 kg
Total Mass 530.00 kg
Length 0.30 m
Diameter 4.10 m
Span 29.00 m
Shape Box + pan
Manufacturer SPXS
Bus Type Starlink V2MO
Phase Status In Orbit
Owner/State SPXS/US

Large Constellations

Loading constellations...